TimeCST,TemperatureF,Dew PointF,Humidity,Sea Level PressureIn,VisibilityMPH,Wind Direction,Wind SpeedMPH,Gust SpeedMPH,PrecipitationIn,Events,Conditions,WindDirDegrees,DateUTC
12:53 AM,32.0,18.0,56,29.93,10.0,NE,18.4,-,N/A,,Mostly Cloudy,40,2014-01-31 06:53:00
1:53 AM,30.9,17.1,57,29.90,10.0,NE,19.6,-,N/A,,Mostly Cloudy,50,2014-01-31 07:53:00
2:53 AM,30.0,17.1,59,29.89,10.0,NE,18.4,23.0,N/A,,Overcast,50,2014-01-31 08:53:00
3:53 AM,30.0,16.0,56,29.91,10.0,NE,16.1,28.8,N/A,,Overcast,40,2014-01-31 09:53:00
4:53 AM,28.9,16.0,58,29.89,10.0,NE,19.6,26.5,N/A,,Overcast,50,2014-01-31 10:53:00
5:53 AM,28.9,15.1,56,29.92,10.0,NE,18.4,-,N/A,,Overcast,50,2014-01-31 11:53:00
6:42 AM,28.4,15.8,59,29.90,10.0,NE,20.7,26.5,N/A,,Overcast,50,2014-01-31 12:42:00
6:53 AM,28.9,15.1,56,29.93,10.0,NE,18.4,24.2,N/A,,Overcast,50,2014-01-31 12:53:00
7:53 AM,28.0,15.1,58,29.95,10.0,NE,18.4,26.5,N/A,,Overcast,40,2014-01-31 13:53:00
8:53 AM,26.1,19.0,75,29.98,7.0,NE,19.6,28.8,N/A,,Overcast,40,2014-01-31 14:53:00
9:28 AM,24.8,19.4,80,29.96,2.5,NE,15.0,25.3,0.00,,Light Freezing Drizzle,40,2014-01-31 15:28:00
9:53 AM,25.0,21.0,85,30.00,2.5,NE,18.4,25.3,0.00,,Light Freezing Drizzle,50,2014-01-31 15:53:00
10:10 AM,24.8,21.2,86,29.96,2.5,NE,20.7,25.3,0.00,,Light Freezing Drizzle,40,2014-01-31 16:10:00
10:53 AM,25.0,21.9,88,30.01,2.0,NNE,13.8,-,0.00,,Light Freezing Drizzle,30,2014-01-31 16:53:00
11:53 AM,25.0,21.9,88,30.00,2.0,NNE,15.0,-,0.00,,Light Freezing Drizzle,30,2014-01-31 17:53:00
12:49 PM,26.6,21.2,80,29.94,3.0,NE,15.0,-,0.00,,Overcast,40,2014-01-31 18:49:00
12:50 PM,26.1,21.9,84,29.97,3.0,NNE,13.8,-,0.00,,Overcast,30,2014-01-31 18:50:00
1:53 PM,25.0,21.0,85,29.96,4.0,NNE,12.7,-,N/A,,Overcast,30,2014-01-31 19:53:00
2:34 PM,24.8,21.2,86,29.91,3.0,NNE,10.4,-,0.00,,Light Freezing Drizzle,20,2014-01-31 20:34:00
2:53 PM,24.1,21.0,88,29.95,3.0,NNE,11.5,-,0.00,,Light Freezing Drizzle,20,2014-01-31 20:53:00
3:01 PM,24.8,21.2,86,29.91,3.0,NNE,10.4,-,0.00,,Light Freezing Drizzle,20,2014-01-31 21:01:00
3:53 PM,24.1,21.0,88,29.95,3.0,North,10.4,-,0.00,,Light Freezing Drizzle,10,2014-01-31 21:53:00
4:35 PM,24.8,21.2,86,29.89,5.0,NNE,13.8,-,0.00,,Overcast,30,2014-01-31 22:35:00
4:53 PM,24.1,21.0,88,29.93,6.0,NNE,11.5,-,0.00,,Overcast,30,2014-01-31 22:53:00
5:53 PM,24.1,21.0,88,29.92,7.0,NE,11.5,-,N/A,,Overcast,40,2014-01-31 23:53:00
6:53 PM,24.1,21.0,88,29.92,7.0,NE,9.2,-,N/A,,Overcast,50,2014-02-01 00:53:00
7:53 PM,24.1,21.0,88,29.93,7.0,NE,9.2,-,N/A,,Overcast,50,2014-02-01 01:53:00
8:53 PM,24.1,21.9,91,29.93,3.0,NNE,9.2,-,N/A,,Overcast,20,2014-02-01 02:53:00
9:24 PM,24.8,21.2,86,29.91,3.0,North,11.5,-,0.00,,Light Freezing Drizzle,360,2014-02-01 03:24:00
9:40 PM,24.8,21.2,86,29.91,2.5,North,10.4,-,0.00,,Light Freezing Drizzle,350,2014-02-01 03:40:00
9:53 PM,24.1,21.9,91,29.95,2.0,North,10.4,-,0.00,,Light Freezing Drizzle,360,2014-02-01 03:53:00
10:35 PM,23.0,21.2,93,29.85,2.5,ENE,10.4,-,0.00,,Light Freezing Drizzle,70,2014-02-01 04:35:00
10:43 PM,24.8,21.2,86,29.85,2.5,NE,11.5,-,0.00,,Light Freezing Drizzle,50,2014-02-01 04:43:00
10:53 PM,24.1,21.9,91,29.89,2.5,NE,8.1,-,0.00,,Light Freezing Drizzle,40,2014-02-01 04:53:00
11:00 PM,24.8,21.2,86,29.89,3.0,Calm,Calm,-,0.00,,Light Freezing Drizzle,0,2014-02-01 05:00:00
11:12 PM,24.8,21.2,86,29.91,1.8,NW,6.9,-,0.01,,Light Freezing Drizzle,320,2014-02-01 05:12:00
11:35 PM,24.8,21.2,86,29.88,0.8,NNW,11.5,-,0.02,,Light Freezing Drizzle,340,2014-02-01 05:35:00
11:53 PM,24.1,21.9,91,29.88,1.0,NE,10.4,-,0.02,,Light Freezing Drizzle,40,2014-02-01 05:53:00